Location: Oroua River
(40.4333°S, 175.4333°E)
Time: 16:46:22
(UTC+00:00)

Cosmos 1802 Rocket - Visible Passes

Search period start: 30 September 2023 00:00
Search period end: 10 October 2023 00:00
Orbit: 955 x 1010 km, 82.9° (Epoch: 29 September)

Date Brightness Start Highest point End Pass type
(mag) Time Alt. Az. Time Alt. Az. Time Alt. Az.
30 Sep 6.2 11:07:40 19° S 11:07:40 19° S 11:09:17 10° S visible
01 Oct 6.2 09:49:57 13° SSE 09:49:57 13° SSE 09:50:42 10° SSE visible
01 Oct 6.2 11:34:44 18° SSW 11:34:44 18° SSW 11:36:28 10° S visible
02 Oct 6.0 10:16:59 20° SSE 10:16:59 20° SSE 10:18:44 10° SSE visible
02 Oct 6.4 12:01:46 14° SSW 12:01:46 14° SSW 12:03:07 10° SSW visible
03 Oct 5.8 10:44:00 24° S 10:44:00 24° S 10:46:20 10° S visible
04 Oct 5.9 09:26:12 16° SE 09:26:12 16° SE 09:27:42 10° SSE visible
04 Oct 5.9 11:10:59 23° SSW 11:10:59 23° SSW 11:13:33 10° S visible
05 Oct 5.5 09:53:10 26° SSE 09:53:10 26° SSE 09:55:45 10° SSE visible
05 Oct 6.2 11:37:57 17° SW 11:37:57 17° SW 11:40:14 10° SSW visible
06 Oct 6.1 08:35:19 11° SE 08:35:19 11° SE 08:35:38 10° SE visible
06 Oct 5.3 10:20:07 33° S 10:20:07 33° S 10:23:23 10° S visible
06 Oct 6.6 12:04:53 10° SW 12:04:53 10° SW 12:05:13 10° SW visible
07 Oct 5.6 09:02:14 21° SE 09:02:14 21° SE 09:04:41 10° SSE visible
07 Oct 5.5 10:47:01 31° SSW 10:47:01 31° SSW 10:50:38 10° S visible
08 Oct 5.0 09:29:06 35° SE 09:29:06 35° SE 09:32:47 10° SSE visible
08 Oct 6.0 11:13:53 21° SW 11:13:53 21° SW 11:17:23 10° SSW visible
09 Oct 5.8 08:11:10 13° ESE 08:11:10 13° ESE 08:12:29 10° SE visible
09 Oct 4.6 09:55:56 50° S 09:55:56 50° S 10:00:26 10° S visible
09 Oct 6.5 11:40:43 11° WSW 11:40:45 11° WSW 11:42:40 10° SW visible
